| time (UTC) | temp F | wind direction | speed knots | gust knots | rain 1hr in | rain 24hr in | rain mn in | humidity % | barometer mb |
| 20260502205557 | 57 | 113 | 0.9 | 2.6 | 0.01 | 0.01 | 0.01 | 80 | 1012.2 |
| 20260502204553 | 57 | 0.0 | 0.9 | 0.01 | 0.01 | 0.01 | 78 | 1012.2 | |
| 20260502203547 | 58 | 90 | 0.0 | 1.7 | 0.01 | 0.01 | 0.01 | 75 | 1012.4 |
| 20260502202606 | 58 | 95 | 0.9 | 1.7 | 0.01 | 0.01 | 0.01 | 73 | 1012.4 |
| 20260502201542 | 59 | 139 | 0.0 | 1.7 | 0.00 | 0.00 | 0.00 | 71 | 1012.4 |
| 20260502200537 | 59 | 0.0 | 0.0 | 0.00 | 0.00 | 0.00 | 70 | 1012.4 | |
| 20260502195535 | 60 | 0.0 | 0.9 | 0.00 | 0.00 | 0.00 | 67 | 1012.5 | |
| 20260502194551 | 60 | 0.0 | 0.0 | 0.00 | 0.00 | 0.00 | 64 | 1012.5 | |
| 20260502193527 | 61 | 0.0 | 0.0 | 0.00 | 0.01 | 0.00 | 63 | 1012.5 | |
| 20260502192524 | 61 | 0.0 | 0.0 | 0.00 | 0.01 | 0.00 | 61 | 1012.4 | |
| 20260502191543 | 61 | 0.0 | 0.0 | 0.00 | 0.01 | 0.00 | 60 | 1012.3 | |
| 20260502190517 | 62 | 0.0 | 0.9 | 0.00 | 0.01 | 0.00 | 60 | 1012.3 | |
| 20260502185613 | 62 | 0.0 | 0.0 | 0.00 | 0.01 | 0.00 | 59 | 1012.3 | |
| 20260502184631 | 62 | 0.0 | 0.9 | 0.00 | 0.01 | 0.00 | 58 | 1012.3 | |
| 20260502183649 | 62 | 180 | 0.0 | 1.7 | 0.00 | 0.01 | 0.00 | 57 | 1012.3 |
| 20260502182603 | 63 | 0.0 | 0.9 | 0.00 | 0.01 | 0.00 | 57 | 1012.5 | |
| 20260502181559 | 63 | 0.0 | 0.9 | 0.00 | 0.01 | 0.00 | 55 | 1012.4 | |
| 20260502180617 | 63 | 0.0 | 0.0 | 0.00 | 0.01 | 0.00 | 55 | 1012.5 | |
| 20260502163524 | 64 | 90 | 0.9 | 1.7 | 0.00 | 0.01 | 0.00 | 50 | 1013.0 |
| 20260502162520 | 64 | 90 | 0.0 | 1.7 | 0.00 | 0.01 | 0.00 | 50 | 1013.2 |
| 20260502161517 | 65 | 32 | 0.9 | 1.7 | 0.00 | 0.01 | 0.00 | 48 | 1013.4 |
| 20260502160615 | 66 | 288 | 0.9 | 3.5 | 0.00 | 0.01 | 0.00 | 48 | 1013.4 |
| 20260502151555 | 67 | 342 | 0.9 | 2.6 | 0.00 | 0.01 | 0.00 | 50 | 1013.9 |
| 20260502150552 | 67 | 135 | 1.7 | 3.5 | 0.00 | 0.01 | 0.00 | 48 | 1014.0 |
| 20260502130609 | 70 | 135 | 1.7 | 1.7 | 0.00 | 0.01 | 0.00 | 45 | 1015.4 |
| 20260502123742 | 66 | 50 | 0.9 | 3.5 | 0.00 | 0.01 | 0.00 | 53 | 1015.6 |
| 20260502122616 | 65 | 153 | 0.9 | 1.7 | 0.00 | 0.01 | 0.00 | 52 | 1015.8 |
| 20260502121552 | 67 | 93 | 0.9 | 1.7 | 0.00 | 0.01 | 0.00 | 51 | 1016.0 |
| 20260502120548 | 66 | 0.0 | 0.9 | 0.00 | 0.01 | 0.00 | 52 | 1016.3 | |
| 20260502115544 | 66 | 130 | 0.9 | 1.7 | 0.00 | 0.01 | 0.00 | 54 | 1016.2 |
| 20260502114543 | 64 | 12 | 0.9 | 2.6 | 0.00 | 0.01 | 0.00 | 59 | 1016.3 |
| 20260502113559 | 62 | 327 | 0.9 | 1.7 | 0.00 | 0.01 | 0.00 | 64 | 1016.5 |
| 20260502112538 | 61 | 120 | 0.9 | 2.6 | 0.00 | 0.01 | 0.00 | 64 | 1016.5 |
| 20260502111533 | 61 | 84 | 0.0 | 1.7 | 0.00 | 0.01 | 0.00 | 65 | 1016.7 |
| 20260502110529 | 61 | 0.0 | 0.9 | 0.00 | 0.01 | 0.00 | 66 | 1016.8 | |
| 20260502105546 | 60 | 90 | 0.9 | 1.7 | 0.00 | 0.01 | 0.00 | 66 | 1016.8 |
| 20260502104522 | 59 | 10 | 0.0 | 1.7 | 0.00 | 0.01 | 0.00 | 67 | 1016.8 |
| 20260502103516 | 59 | 327 | 0.9 | 3.5 | 0.00 | 0.01 | 0.00 | 67 | 1016.9 |
| 20260502102614 | 59 | 79 | 0.9 | 2.6 | 0.00 | 0.01 | 0.00 | 66 | 1016.8 |
| 20260502101610 | 59 | 18 | 1.7 | 3.5 | 0.00 | 0.01 | 0.00 | 66 | 1017.1 |
| 20260502100608 | 60 | 356 | 0.9 | 2.6 | 0.00 | 0.01 | 0.00 | 66 | 1017.0 |
| 20260502090545 | 57 | 0.0 | 0.0 | 0.00 | 0.01 | 0.00 | 73 | 1017.3 | |
| 20260502070604 | 52 | 0.0 | 0.0 | 0.00 | 0.01 | 0.00 | 94 | 1017.5 | |
| 20260502065644 | 52 | 0 | 0.0 | 1.7 | 0.00 | 0.01 | 0.00 | 94 | 1017.4 |
| 20260502064556 | 52 | 151 | 0.0 | 1.7 | 0.00 | 0.01 | 0.00 | 95 | 1017.4 |
| 20260502063638 | 52 | 56 | 0.0 | 1.7 | 0.00 | 0.01 | 0.00 | 95 | 1017.5 |
| 20260502062548 | 51 | 0 | 0.0 | 1.7 | 0.00 | 0.01 | 0.00 | 95 | 1017.6 |
| 20260502061607 | 51 | 45 | 0.0 | 1.7 | 0.00 | 0.01 | 0.00 | 95 | 1017.3 |
| 20260502060543 | 51 | 16 | 0.0 | 1.7 | 0.00 | 0.01 | 0.00 | 95 | 1017.4 |
| 20260502055539 | 51 | 0 | 0.0 | 1.7 | 0.00 | 0.01 | 0.00 | 95 | 1017.3 |
| 20260502054534 | 51 | 0.0 | 0.9 | 0.00 | 0.01 | 0.00 | 94 | 1017.4 | |
| 20260502053532 | 51 | 8 | 0.9 | 1.7 | 0.00 | 0.01 | 0.00 | 94 | 1017.3 |
| 20260502052547 | 50 | 352 | 0.9 | 1.7 | 0.00 | 0.01 | 0.00 | 94 | 1017.3 |
| 20260502051547 | 51 | 357 | 0.9 | 2.6 | 0.00 | 0.01 | 0.00 | 94 | 1017.4 |
| 20260502050520 | 51 | 0.0 | 0.0 | 0.00 | 0.01 | 0.00 | 94 | 1017.4 | |
| 20260502045517 | 51 | 225 | 0.0 | 1.7 | 0.00 | 0.01 | 0.00 | 94 | 1017.5 |
| 20260502044613 | 51 | 90 | 0.0 | 1.7 | 0.00 | 0.01 | 0.00 | 94 | 1017.3 |
| 20260502043609 | 51 | 1 | 0.0 | 2.6 | 0.00 | 0.01 | 0.00 | 94 | 1017.4 |
| 20260502042607 | 51 | 0.0 | 1.7 | 0.00 | 0.01 | 0.00 | 94 | 1017.3 | |
| 20260502041602 | 51 | 0 | 0.0 | 1.7 | 0.00 | 0.01 | 0.00 | 94 | 1017.4 |
| 20260502040641 | 51 | 0 | 0.9 | 1.7 | 0.00 | 0.01 | 0.00 | 94 | 1017.5 |
| 20260502035556 | 51 | 76 | 0.9 | 2.6 | 0.00 | 0.01 | 0.00 | 94 | 1017.4 |
| 20260502034554 | 51 | 23 | 0.0 | 1.7 | 0.00 | 0.01 | 0.00 | 94 | 1017.5 |
| 20260502033551 | 52 | 154 | 0.9 | 2.6 | 0.00 | 0.01 | 0.00 | 95 | 1017.5 |
| 20260502032545 | 51 | 90 | 0.0 | 1.7 | 0.00 | 0.01 | 0.00 | 95 | 1017.4 |
| 20260502031542 | 52 | 90 | 0.0 | 1.7 | 0.00 | 0.01 | 0.00 | 95 | 1017.4 |
| 20260502030539 | 52 | 0.0 | 0.0 | 0.00 | 0.01 | 0.00 | 96 | 1017.5 | |
| 20260502025537 | 52 | 56 | 0.0 | 2.6 | 0.00 | 0.01 | 0.00 | 96 | 1017.5 |
| 20260502024533 | 52 | 45 | 0.0 | 1.7 | 0.00 | 0.01 | 0.00 | 96 | 1017.4 |
| 20260502023530 | 52 | 55 | 0.9 | 1.7 | 0.00 | 0.01 | 0.00 | 97 | 1017.6 |
| 20260502022527 | 53 | 107 | 0.9 | 1.7 | 0.00 | 0.01 | 0.00 | 97 | 1017.6 |
| 20260502021521 | 53 | 82 | 0.9 | 2.6 | 0.00 | 0.01 | 0.00 | 97 | 1017.7 |
| 20260502020537 | 53 | 125 | 0.9 | 2.6 | 0.00 | 0.01 | 0.00 | 97 | 1017.6 |
| 20260502015614 | 54 | 116 | 0.9 | 1.7 | 0.00 | 0.01 | 0.00 | 97 | 1017.8 |
| 20260502014613 | 54 | 90 | 0.0 | 1.7 | 0.00 | 0.01 | 0.00 | 97 | 1017.8 |
| 20260502013608 | 54 | 0.0 | 0.9 | 0.00 | 0.01 | 0.00 | 97 | 1017.9 | |
| 20260502012623 | 54 | 0.0 | 0.0 | 0.00 | 0.01 | 0.00 | 97 | 1017.9 | |
| 20260502011620 | 54 | 0.0 | 0.9 | 0.00 | 0.01 | 0.00 | 97 | 1018.1 | |
| 20260502010557 | 54 | 0.0 | 0.9 | 0.00 | 0.01 | 0.00 | 97 | 1018.1 | |
| 20260502005554 | 54 | 0.0 | 0.9 | 0.00 | 0.01 | 0.00 | 96 | 1018.4 | |
| 20260502004634 | 54 | 45 | 0.0 | 1.7 | 0.00 | 0.01 | 0.00 | 96 | 1018.5 |
| 20260502003545 | 54 | 0.0 | 0.0 | 0.00 | 0.01 | 0.00 | 96 | 1018.7 | |
| 20260502002544 | 54 | 0.0 | 0.9 | 0.00 | 0.01 | 0.00 | 96 | 1018.6 | |
| 20260502001538 | 53 | 0.0 | 0.0 | 0.00 | 0.01 | 0.00 | 95 | 1018.6 | |
| 20260502000618 | 53 | 0.0 | 0.0 | 0.00 | 0.01 | 0.00 | 95 | 1018.7 | |
| 20260501235533 | 54 | 0.0 | 0.0 | 0.00 | 0.01 | 0.00 | 95 | 1018.7 | |
| 20260501234528 | 54 | 0.0 | 0.0 | 0.00 | 0.01 | 0.00 | 95 | 1018.7 | |
| 20260501233524 | 54 | 0.0 | 0.0 | 0.00 | 0.01 | 0.00 | 95 | 1018.8 | |
| 20260501232522 | 54 | 0.0 | 0.0 | 0.00 | 0.01 | 0.00 | 95 | 1018.8 | |
| 20260501231517 | 54 | 0.0 | 0.9 | 0.00 | 0.01 | 0.00 | 95 | 1018.7 | |
| 20260501230615 | 55 | 0.0 | 0.9 | 0.00 | 0.01 | 0.00 | 92 | 1018.9 | |
| 20260501225631 | 55 | 45 | 0.0 | 1.7 | 0.00 | 0.01 | 0.01 | 91 | 1018.9 |
| 20260501224607 | 55 | 90 | 0.0 | 1.7 | 0.00 | 0.01 | 0.01 | 91 | 1018.7 |
| 20260501223624 | 55 | 77 | 0.9 | 2.6 | 0.00 | 0.01 | 0.01 | 91 | 1018.8 |
| 20260501222601 | 55 | 90 | 0.0 | 0.9 | 0.00 | 0.01 | 0.01 | 91 | 1018.6 |
| 20260501221558 | 55 | 45 | 0.0 | 1.7 | 0.00 | 0.01 | 0.01 | 91 | 1018.6 |
| 20260501220553 | 55 | 90 | 0.0 | 1.7 | 0.00 | 0.01 | 0.01 | 90 | 1018.6 |
| 20260501215611 | 56 | 0.0 | 0.9 | 0.00 | 0.01 | 0.01 | 90 | 1018.9 | |
| 20260501214545 | 56 | 101 | 0.0 | 1.7 | 0.00 | 0.01 | 0.01 | 90 | 1018.9 |
| 20260501213542 | 56 | 90 | 0.0 | 1.7 | 0.00 | 0.01 | 0.01 | 90 | 1019.0 |
| 20260501212538 | 56 | 74 | 0.9 | 2.6 | 0.00 | 0.01 | 0.01 | 90 | 1018.9 |
| 20260501211537 | 56 | 0.0 | 0.9 | 0.00 | 0.01 | 0.01 | 90 | 1018.9 | |
| 20260501210533 | 56 | 135 | 0.9 | 1.7 | 0.00 | 0.01 | 0.01 | 90 | 1019.0 |